Location: Bo?orod
(45.6833°N, 23.0833°E)
Time: 12:32:50
(UTC+00:00)

Daily predictions for brighter satellites

Satellite Brightness Start Highest point End
(mag) Time Altitude Azimuth Time Altitude Azimuth Time Altitude Azimuth
BREEZE-M DEB (TANK) 3.5 15:49:10 10° WNW 15:52:13 82° NNE 16:02:27 10° ESE
CZ-4B R/B 4.5 15:51:42 10° E 15:55:08 18° ENE 15:58:37 10° NNE
NOSS 3-4 (A) 3.9 15:49:51 10° NW 15:56:44 68° NE 16:04:35 10° SE
NOSS 3-4 (C) 3.9 15:49:58 10° NW 15:56:50 68° NE 16:04:41 10° SE
AQUARIUS 4.2 15:53:47 10° SSE 15:58:16 85° ENE 16:02:47 10° NNW
SJ-11-01 4.3 15:55:08 10° SSE 15:59:49 88° ENE 16:04:34 10° NNW
ISS -2.5 15:57:54 10° WNW 16:00:54 28° N 16:03:52 10° ENE
Cosmos 614 Rocket 4.0 15:56:17 10° SSW 16:01:29 75° ESE 16:06:41 10° NNE
Cosmos 1867 3.7 15:56:13 10° NNW 16:01:36 56° NE 16:06:57 10° SE
Cosmos 1455 Rocket 3.0 15:57:31 10° N 16:01:54 76° E 16:06:14 10° SSE
Cosmos 1269 Rocket 4.2 15:57:43 10° SSW 16:02:59 80° WNW 16:08:19 10° NNE
SMAP 3.5 15:58:50 10° S 16:03:29 71° WSW 16:08:08 10° NNW
Cosmos 2360 4.3 15:58:35 10° SSW 16:04:16 90° WNW 16:10:00 10° NNE
Cosmos 1844 Rocket 4.5 16:02:44 10° NNE 16:04:48 12° NE 16:06:51 10° ENE
ATLAS CENTAUR R/B 2.9 16:01:34 10° SSE 16:05:23 25° ESE 16:09:09 10° ENE
NOAA 6 4.0 16:05:25 10° SSE 16:10:32 75° ENE 16:15:42 10° N
SKYMED 2 4.0 16:09:32 10° NNE 16:13:40 41° E 16:17:46 10° S
SL-4 R/B 1.6 16:16:46 10° SW 16:20:11 71° SSE 16:23:13 14° ENE
Tiangong -0.4 16:17:43 10° WSW 16:20:31 28° SSW 16:23:18 10° SE
ADEOS 3.9 16:15:39 10° S 16:20:51 73° WSW 16:26:06 10° NNW
Cosmos 1340 Rocket 3.6 16:19:27 10° SSE 16:22:45 28° E 16:26:06 10° NNE
NOSS 2-1 (E) 4.3 16:18:42 10° NNW 16:22:49 41° NE 16:28:29 10° ESE
Cosmos 2297 Rocket 4.4 16:19:26 10° NW 16:24:18 30° WSW 16:29:09 10° SSW
Cosmos 1408 3.8 16:22:34 10° SE 16:25:05 20° E 16:26:49 14° NE
Cosmos 1655 Rocket 4.2 16:19:12 10° N 16:25:19 51° ENE 16:31:21 10° SSE
Cosmos 1607 4.2 16:20:12 10° S 16:26:01 48° ESE 16:31:54 10° NE
USA 290 3.2 16:24:26 10° SSE 16:27:15 28° ESE 16:29:15 16° NE
Cosmos 2322 Rocket 3.9 16:25:29 10° ESE 16:27:28 12° E 16:27:35 12° E
Cosmos 1238 Rocket 3.6 16:24:41 10° NNW 16:29:14 76° W 16:34:38 10° S
Cosmos 1140 Rocket 3.9 16:25:39 10° S 16:30:28 41° ESE 16:35:18 10° NE
Cosmos 2227 Rocket 3.6 16:25:41 10° NW 16:31:01 43° WSW 16:36:19 10° S
YAOGAN 1 3.3 16:28:17 10° SE 16:32:05 31° ENE 16:35:54 10° N
Cosmos 1703 3.2 16:32:32 10° S 16:36:22 82° W 16:40:12 10° N
SL-16 R/B 3.4 16:33:06 10° SSE 16:37:19 22° E 16:39:35 17° ENE
Cosmos 1975 Rocket 4.0 16:33:40 10° SSW 16:38:01 51° WNW 16:42:22 10° N
COSMOS 2455 2.8 16:32:25 10° SSW 16:38:26 80° ESE 16:44:29 10° NE
CZ-4 R/B 2.5 16:36:34 10° ESE 16:39:53 23° ENE 16:43:10 10° NNE
Cosmos 1536 Rocket 3.7 16:37:37 10° SSE 16:41:46 48° E 16:45:56 10° NNE
Cosmos 1025 Rocket 4.3 16:37:55 10° SSW 16:41:58 42° WNW 16:46:03 10° N
Radarsat Rocket 4.4 16:37:23 10° S 16:43:14 70° WSW 16:49:38 10° NNW
Cosmos 2369 3.7 16:40:05 10° SSW 16:45:45 87° WNW 16:51:28 10° NNE
CZ-4 R/B 4.4 16:43:42 10° SSE 16:47:48 87° W 16:51:56 10° NNW
Cosmos 1184 Rocket 4.4 16:45:53 10° N 16:46:14 13° N 16:46:14 13° N
Cosmos 44 3.2 16:45:25 10° SW 16:49:43 71° NW 16:53:34 14° NNE
YAOGAN 3 4.5 16:48:04 10° SSE 16:52:24 78° ENE 16:56:46 10° N
Cosmos 2251 Rocket 3.5 16:48:16 10° SSW 16:53:35 78° ESE 16:58:59 10° NNE
Cosmos 1892 3.4 16:51:18 10° SSE 16:54:33 30° E 16:54:40 30° E
Cosmos 1606 Rocket 4.2 16:53:06 10° N 16:56:58 31° ENE 16:58:23 25° ESE
Cosmos 1980 Rocket 2.4 16:51:36 10° SSW 16:57:14 73° WNW 17:02:57 10° NNE
COSMO-SKYMED 1 3.0 16:57:28 10° N 17:01:46 62° WNW 17:06:03 10° SSW
Lacrosse 5 3.5 17:00:08 10° SSE 17:03:05 17° SE 17:03:05 17° SE
Cosmos 1697 Rocket 4.2 17:00:26 10° WSW 17:05:34 35° NW 17:10:43 10° NNE
Cosmos 2266 Rocket 4.3 17:00:50 10° NNW 17:07:10 72° W 17:13:19 10° S
Cosmos 1328 3.6 17:05:06 10° S 17:09:05 81° E 17:13:05 10° N
NOSS 2-1 (C) 4.0 17:06:04 10° NW 17:10:32 87° SW 17:16:55 10° SE
BlueWalker 3 2.3 17:06:51 10° WSW 17:10:40 57° NNW 17:12:01 35° NE
Feng Yun 1-1 Rocket 4.4 17:05:53 10° SE 17:11:14 47° ENE 17:16:30 10° N
Lacrosse 5 rocket 3.1 17:10:55 10° NNW 17:12:59 15° N 17:12:59 15° N
Okean O Rocket 1.7 17:09:57 15° SE 17:13:22 48° ENE 17:17:37 10° N
PSLV R/B 3.6 17:10:07 10° SSE 17:13:44 84° WSW 17:17:25 10° NNW
Timation 2 Rocket 3.9 17:08:02 10° NNW 17:14:15 83° ENE 17:20:41 10° SSE
Cosmos 1553 Rocket 4.4 17:10:48 10° SSE 17:16:13 36° E 17:21:42 10° NNE
Cosmos 2263 Rocket 2.5 17:11:23 10° NNW 17:16:55 66° WSW 17:22:24 10° SSE
ATLAS 5 CENTAUR R/B 3.9 17:15:49 10° NW 17:17:45 13° NNW 17:19:49 10° N
NOSS 2-1 (D) 4.1 17:14:23 10° NW 17:18:51 76° SW 17:25:11 10° SSE
Meteor 1-21 Rocket 4.5 17:16:21 10° SSW 17:22:04 71° WNW 17:27:42 10° N
Cosmos 1763 Rocket 3.6 17:20:16 10° NNW 17:25:18 47° ENE 17:25:53 45° E
MINOTAUR 4 R/B 3.9 17:25:41 61° N 17:26:14 84° WNW 17:29:38 10° SSW
Cosmos 2228 3.1 17:22:41 10° NNW 17:26:55 72° W 17:31:06 10° S
IRIDIUM 106 4.4 17:26:26 10° N 17:31:31 50° E 17:31:52 49° E
ATLAS 2AS CENTAUR R/B 2.7 17:24:49 10° NW 17:31:47 57° NE 17:34:03 40° E
CZ-4B R/B 3.2 17:29:45 10° S 17:35:03 78° WSW 17:40:28 10° NNW
ISS -2.4 17:34:48 10° WNW 17:37:02 34° NNW 17:37:02 34° NNW
Cosmos 676 Rocket 4.2 17:33:16 10° S 17:38:02 51° ESE 17:38:02 51° ESE
Cosmos 2227 4.3 17:34:04 10° NNW 17:39:52 80° WSW 17:45:11 12° SSE
ATLAS CENTAUR R/B 2.4 17:39:07 10° SW 17:43:43 50° NW 17:45:17 35° N
Nadezhda 2 Rocket 4.3 17:37:43 10° N 17:43:59 80° E 17:50:08 10° SSE
Cosmos 1844 4.2 17:40:52 10° NNW 17:45:38 42° NE 17:45:38 42° NE
Cosmos 407 Rocket 4.1 17:41:27 10° SW 17:46:30 54° WNW 17:50:15 18° N
Cosmos 2278 4.2 17:42:44 10° SW 17:48:18 59° WNW 17:52:09 21° NNE
Cosmos 1844 Rocket 3.0 17:44:36 10° NNW 17:49:18 48° NNE 17:49:18 48° NNE
Tiangong 1.0 17:56:09 10° SW 17:56:31 10° SSW 17:56:31 10° SSW
Cosmos 540 Rocket 4.3 17:52:16 10° NNW 17:55:34 37° N 17:55:34 37° N
SL-4 R/B 3.5 17:56:22 10° W 17:58:33 29° NW 17:58:33 29° NW
Cosmos 1190 Rocket 4.3 17:54:53 10° SSW 18:00:09 65° WNW 18:02:11 37° N
Cosmos 2360 Rocket 3.6 17:57:17 10° S 17:59:30 24° S 17:59:30 24° S
BREEZE-M DEB (TANK) 3.3 18:02:48 10° W 18:06:38 90° S 18:07:22 71° E
Meteor 1-27 4.2 18:01:58 10° N 18:07:18 73° NNE 18:07:18 73° NNE
Cosmos 2322 Rocket 2.4 18:04:57 10° SSW 18:09:28 59° S 18:09:28 59° S
CZ-4 R/B 3.0 18:10:49 10° SSW 18:14:36 34° W 18:18:23 10° NNW
SL-16 R/B 2.6 18:15:18 10° SW 18:20:54 61° WNW 18:21:31 57° NNW
Gblst 52 Del rocket 4.5 18:18:28 10° WSW 18:22:59 60° WSW 18:22:59 60° WSW
Lacrosse 5 3.9 18:40:39 10° SW 18:42:19 21° SW 18:42:19 21° SW
Okean O Rocket 4.2 18:47:21 11° SW 18:49:58 18° W 18:52:59 10° NW
ATLAS 2AS CENTAUR R/B 4.0 19:16:15 10° NW 19:21:31 34° W 19:21:31 34° W
